TimeEST,TemperatureF,Dew PointF,Humidity,Sea Level PressureIn,VisibilityMPH,Wind Direction,Wind SpeedMPH,Gust SpeedMPH,PrecipitationIn,Events,Conditions,WindDirDegrees,DateUTC
12:28 AM,-9999,-9999,N/A,29.98,10.0,SSW,5.8,-,0.01,,Overcast,210,2012-12-08 05:28:00
12:39 AM,-9999,-9999,N/A,29.98,9.0,SSW,8.1,-,0.01,Rain,Light Rain,210,2012-12-08 05:39:00
12:57 AM,-9999,-9999,N/A,29.99,9.0,SW,4.6,-,0.01,,Mostly Cloudy,230,2012-12-08 05:57:00
1:12 AM,-9999,-9999,N/A,29.97,7.0,Calm,Calm,-,N/A,,Overcast,0,2012-12-08 06:12:00
1:57 AM,-9999,-9999,N/A,29.99,2.5,Calm,Calm,-,N/A,,Overcast,0,2012-12-08 06:57:00
2:00 AM,-9999,-9999,N/A,29.97,2.0,SSW,3.5,-,N/A,,Overcast,200,2012-12-08 07:00:00
2:14 AM,-9999,-9999,N/A,29.96,1.8,Calm,Calm,-,N/A,,Overcast,0,2012-12-08 07:14:00
2:33 AM,-9999,-9999,N/A,29.96,0.2,Calm,Calm,-,N/A,Fog,Fog,0,2012-12-08 07:33:00
2:57 AM,-9999,-9999,N/A,29.98,0.5,Calm,Calm,-,N/A,Fog,Fog,0,2012-12-08 07:57:00
3:36 AM,-9999,-9999,N/A,29.97,0.2,Calm,Calm,-,N/A,Fog,Fog,0,2012-12-08 08:36:00
3:53 AM,-9999,-9999,N/A,29.97,0.5,Calm,Calm,-,N/A,Fog,Fog,0,2012-12-08 08:53:00
3:57 AM,-9999,-9999,N/A,29.99,0.5,Calm,Calm,-,N/A,Fog,Fog,0,2012-12-08 08:57:00
4:11 AM,-9999,-9999,N/A,29.97,0.5,Calm,Calm,-,N/A,Fog,Fog,0,2012-12-08 09:11:00
4:22 AM,-9999,-9999,N/A,29.97,0.8,Calm,Calm,-,N/A,,Overcast,0,2012-12-08 09:22:00
4:40 AM,-9999,-9999,N/A,29.97,1.5,Calm,Calm,-,0.01,,Overcast,0,2012-12-08 09:40:00
4:47 AM,-9999,-9999,N/A,29.97,3.0,Calm,Calm,-,0.01,,Overcast,0,2012-12-08 09:47:00
4:57 AM,-9999,-9999,N/A,29.99,7.0,Calm,Calm,-,0.01,,Overcast,0,2012-12-08 09:57:00
5:15 AM,-9999,-9999,N/A,29.97,6.0,Calm,Calm,-,N/A,,Haze,0,2012-12-08 10:15:00
5:57 AM,-9999,-9999,N/A,30.00,9.0,WNW,5.8,-,N/A,,Overcast,290,2012-12-08 10:57:00
6:57 AM,-9999,-9999,N/A,30.02,10.0,WNW,3.5,-,N/A,,Overcast,290,2012-12-08 11:57:00
7:57 AM,-9999,-9999,N/A,30.04,10.0,Variable,4.6,-,N/A,,Overcast,0,2012-12-08 12:57:00
8:57 AM,-9999,-9999,N/A,30.06,10.0,WNW,4.6,-,N/A,,Overcast,290,2012-12-08 13:57:00
9:08 AM,60.8,57.2,88,30.04,10.0,Variable,3.5,-,N/A,,Overcast,0,2012-12-08 14:08:00
9:57 AM,60.1,57.0,90,30.06,10.0,NW,4.6,-,N/A,,Overcast,310,2012-12-08 14:57:00
10:57 AM,61.0,57.0,87,30.06,10.0,WNW,6.9,-,N/A,,Overcast,290,2012-12-08 15:57:00
11:57 AM,61.0,55.9,83,30.04,10.0,NW,5.8,-,N/A,,Overcast,310,2012-12-08 16:57:00
12:04 PM,60.8,57.2,88,30.03,10.0,West,4.6,-,N/A,,Mostly Cloudy,270,2012-12-08 17:04:00
12:23 PM,62.6,57.2,82,30.02,10.0,WSW,3.5,-,N/A,,Scattered Clouds,250,2012-12-08 17:23:00
1:57 PM,63.0,57.0,81,30.01,10.0,SW,9.2,-,N/A,,Clear,220,2012-12-08 18:57:00
2:57 PM,62.1,55.9,80,30.02,10.0,SW,8.1,-,N/A,,Clear,220,2012-12-08 19:57:00
3:57 PM,60.1,55.9,86,30.03,10.0,SW,5.8,-,N/A,,Clear,220,2012-12-08 20:57:00
4:57 PM,59.0,55.9,90,30.04,7.0,SW,5.8,-,N/A,,Clear,220,2012-12-08 21:57:00
5:57 PM,57.9,55.9,93,30.06,6.0,SW,8.1,-,N/A,,Partly Cloudy,220,2012-12-08 22:57:00
6:09 PM,57.2,55.4,94,30.05,5.0,SW,6.9,-,N/A,,Mostly Cloudy,230,2012-12-08 23:09:00
6:16 PM,57.2,55.4,94,30.06,1.8,SW,8.1,-,N/A,,Mostly Cloudy,230,2012-12-08 23:16:00
6:28 PM,55.4,55.4,100,30.06,0.8,SW,6.9,-,N/A,,Mist,230,2012-12-08 23:28:00
6:57 PM,55.9,55.0,97,30.08,0.5,SW,5.8,-,N/A,Fog,Fog,230,2012-12-08 23:57:00
7:57 PM,55.9,55.0,97,30.08,0.2,SW,8.1,-,N/A,Fog,Fog,230,2012-12-09 00:57:00
8:30 PM,55.4,55.4,100,30.08,0.5,SW,8.1,-,N/A,Fog,Fog,230,2012-12-09 01:30:00
8:41 PM,55.4,55.4,100,30.08,0.2,SW,9.2,-,N/A,Fog,Fog,230,2012-12-09 01:41:00
9:08 PM,55.4,55.4,100,30.08,0.5,SW,6.9,-,N/A,Fog,Fog,220,2012-12-09 02:08:00
9:30 PM,55.4,55.4,100,30.09,0.2,SW,5.8,-,N/A,Fog,Fog,230,2012-12-09 02:30:00
9:41 PM,55.4,55.4,100,30.09,0.5,SW,5.8,-,N/A,Fog,Fog,230,2012-12-09 02:41:00
9:57 PM,55.0,55.0,100,30.10,0.5,SW,6.9,-,N/A,Fog,Fog,230,2012-12-09 02:57:00
10:07 PM,55.4,55.4,100,30.09,0.2,SW,5.8,-,N/A,Fog,Fog,230,2012-12-09 03:07:00
10:46 PM,55.4,55.4,100,30.09,0.5,SW,6.9,-,N/A,Fog,Fog,220,2012-12-09 03:46:00
10:53 PM,55.4,55.4,100,30.09,0.2,SW,5.8,-,N/A,Fog,Fog,230,2012-12-09 03:53:00
10:57 PM,55.9,55.0,97,30.10,0.2,SW,6.9,-,N/A,Fog,Fog,230,2012-12-09 03:57:00
11:13 PM,55.4,55.4,100,30.09,0.5,SW,4.6,-,N/A,Fog,Fog,230,2012-12-09 04:13:00
11:30 PM,-9999,-9999,N/A,-9999,-9999.0,North,-9999.0,-,N/A,,Unknown,0,2012-12-09 04:30:00
11:57 PM,55.0,55.0,100,30.10,0.2,WSW,3.5,-,N/A,Fog,Fog,240,2012-12-09 04:57:00